PRIVATE WETTERSTATION BILLIGHEIM-ALLFELD                       ZURCK
Wetterdaten: Samstag, 20.08.2016
Datum Zeit Temp. A. Temp. A. min Temp. A. max Feuchte A. Luftdruck Regen Wind Richtung Richtung Sonnenschein ET Solar Taupunkt Windchill Windben Empfang
20.08.2016 00:00 18,9 C 18,9 C 18,9 C 79 % 1011,1 hPa 0,0 l/m 0,0 km/h (0 Bft) W-NW 292 0 min 0,025 mm 0 W/m 15,2 C 18,9 C 1,6 km/h (1 Bft) 100 %
20.08.2016 00:10 19,0 C 18,9 C 19,0 C 79 % 1011,2 hPa 0,0 l/m 0,0 km/h (0 Bft) N 0 0 min 0,000 mm 0 W/m 15,3 C 19,0 C 0,0 km/h (0 Bft) 99 %
20.08.2016 00:20 18,8 C 18,8 C 19,0 C 79 % 1011,3 hPa 0,0 l/m 0,0 km/h (0 Bft) N 0 0 min 0,000 mm 0 W/m 15,1 C 18,8 C 0,0 km/h (0 Bft) 100 %
20.08.2016 00:30 18,8 C 18,8 C 18,8 C 80 % 1011,5 hPa 0,0 l/m 0,0 km/h (0 Bft) N 0 0 min 0,000 mm 0 W/m 15,3 C 18,8 C 0,0 km/h (0 Bft) 100 %
20.08.2016 00:40 18,7 C 18,7 C 18,8 C 79 % 1011,4 hPa 0,0 l/m 0,0 km/h (0 Bft) N 0 0 min 0,000 mm 0 W/m 15,0 C 18,7 C 0,0 km/h (0 Bft) 100 %
20.08.2016 00:50 18,7 C 18,7 C 18,7 C 80 % 1011,5 hPa 0,0 l/m 0,0 km/h (0 Bft) W-NW 292 0 min 0,000 mm 0 W/m 15,2 C 18,7 C 1,6 km/h (1 Bft) 100 %
20.08.2016 01:00 18,7 C 18,7 C 18,7 C 81 % 1011,5 hPa 0,0 l/m 0,0 km/h (0 Bft) N 0 0 min 0,025 mm 0 W/m 15,4 C 18,7 C 0,0 km/h (0 Bft) 100 %
20.08.2016 01:10 18,6 C 18,6 C 18,7 C 82 % 1011,4 hPa 0,0 l/m 0,0 km/h (0 Bft) N 0 0 min 0,000 mm 0 W/m 15,5 C 18,6 C 0,0 km/h (0 Bft) 100 %
20.08.2016 01:20 18,5 C 18,5 C 18,6 C 81 % 1011,6 hPa 0,0 l/m 0,0 km/h (0 Bft) N 0 0 min 0,000 mm 0 W/m 15,2 C 18,5 C 0,0 km/h (0 Bft) 100 %
20.08.2016 01:30 18,4 C 18,4 C 18,5 C 82 % 1011,5 hPa 0,0 l/m 0,0 km/h (0 Bft) N 0 0 min 0,000 mm 0 W/m 15,3 C 18,4 C 0,0 km/h (0 Bft) 100 %
20.08.2016 01:40 18,4 C 18,4 C 18,5 C 83 % 1011,6 hPa 0,0 l/m 1,6 km/h (1 Bft) W-NW 292 0 min 0,000 mm 0 W/m 15,5 C 18,4 C 4,8 km/h (1 Bft) 100 %
20.08.2016 01:50 18,4 C 18,4 C 18,4 C 83 % 1011,5 hPa 0,0 l/m 1,6 km/h (1 Bft) W-NW 292 0 min 0,000 mm 0 W/m 15,5 C 18,4 C 4,8 km/h (1 Bft) 100 %
20.08.2016 02:00 18,3 C 18,3 C 18,4 C 84 % 1011,6 hPa 0,0 l/m 1,6 km/h (1 Bft) W-NW 292 0 min 0,025 mm 0 W/m 15,5 C 18,3 C 3,2 km/h (1 Bft) 90 %
20.08.2016 02:10 18,1 C 18,1 C 18,3 C 84 % 1011,6 hPa 0,0 l/m 0,0 km/h (0 Bft) W-NW 292 0 min 0,000 mm 0 W/m 15,4 C 18,1 C 1,6 km/h (1 Bft) 100 %
20.08.2016 02:20 18,0 C 18,0 C 18,1 C 84 % 1011,6 hPa 0,0 l/m 0,0 km/h (0 Bft) N 0 0 min 0,000 mm 0 W/m 15,3 C 18,0 C 0,0 km/h (0 Bft) 100 %
20.08.2016 02:30 18,0 C 18,0 C 18,0 C 85 % 1011,5 hPa 0,0 l/m 0,0 km/h (0 Bft) W-NW 292 0 min 0,000 mm 0 W/m 15,4 C 18,0 C 1,6 km/h (1 Bft) 100 %
20.08.2016 02:40 18,0 C 17,9 C 18,0 C 85 % 1011,6 hPa 0,0 l/m 0,0 km/h (0 Bft) W-NW 292 0 min 0,000 mm 0 W/m 15,4 C 18,0 C 1,6 km/h (1 Bft) 100 %
20.08.2016 02:50 17,8 C 17,8 C 18,0 C 84 % 1011,6 hPa 0,0 l/m 3,2 km/h (1 Bft) S-SO 157 0 min 0,000 mm 0 W/m 15,1 C 17,8 C 6,4 km/h (2 Bft) 100 %
20.08.2016 03:00 17,8 C 17,8 C 17,8 C 84 % 1011,6 hPa 0,0 l/m 4,8 km/h (1 Bft) SO 135 0 min 0,025 mm 0 W/m 15,1 C 17,8 C 8,0 km/h (2 Bft) 100 %
20.08.2016 03:10 17,7 C 17,7 C 17,8 C 84 % 1011,7 hPa 0,0 l/m 4,8 km/h (1 Bft) SO 135 0 min 0,000 mm 0 W/m 15,0 C 17,7 C 6,4 km/h (2 Bft) 100 %
20.08.2016 03:20 17,6 C 17,6 C 17,7 C 85 % 1011,7 hPa 0,0 l/m 1,6 km/h (1 Bft) SO 135 0 min 0,000 mm 0 W/m 15,0 C 17,6 C 8,0 km/h (2 Bft) 100 %
20.08.2016 03:30 17,6 C 17,6 C 17,6 C 85 % 1011,7 hPa 0,0 l/m 1,6 km/h (1 Bft) SO 135 0 min 0,000 mm 0 W/m 15,0 C 17,6 C 6,4 km/h (2 Bft) 100 %
20.08.2016 03:40 17,6 C 17,6 C 17,6 C 85 % 1011,6 hPa 0,0 l/m 0,0 km/h (0 Bft) SO 135 0 min 0,000 mm 0 W/m 15,0 C 17,6 C 1,6 km/h (1 Bft) 100 %
20.08.2016 03:50 17,6 C 17,6 C 17,6 C 85 % 1011,6 hPa 0,0 l/m 0,0 km/h (0 Bft) SO 135 0 min 0,000 mm 0 W/m 15,0 C 17,6 C 1,6 km/h (1 Bft) 100 %
20.08.2016 04:00 17,6 C 17,6 C 17,6 C 85 % 1011,6 hPa 0,0 l/m 0,0 km/h (0 Bft) N 0 0 min 0,025 mm 0 W/m 15,0 C 17,6 C 0,0 km/h (0 Bft) 100 %
20.08.2016 04:10 17,6 C 17,5 C 17,6 C 85 % 1011,6 hPa 0,0 l/m 0,0 km/h (0 Bft) SO 135 0 min 0,000 mm 0 W/m 15,0 C 17,6 C 1,6 km/h (1 Bft) 100 %
20.08.2016 04:20 17,4 C 17,4 C 17,6 C 85 % 1011,5 hPa 0,0 l/m 0,0 km/h (0 Bft) N 0 0 min 0,000 mm 0 W/m 14,8 C 17,4 C 0,0 km/h (0 Bft) 100 %
20.08.2016 04:30 17,3 C 17,3 C 17,4 C 85 % 1011,4 hPa 0,0 l/m 0,0 km/h (0 Bft) SO 135 0 min 0,000 mm 0 W/m 14,8 C 17,3 C 1,6 km/h (1 Bft) 100 %
20.08.2016 04:40 17,0 C 17,0 C 17,3 C 85 % 1011,5 hPa 0,0 l/m 0,0 km/h (0 Bft) N 0 0 min 0,000 mm 0 W/m 14,5 C 17,0 C 0,0 km/h (0 Bft) 100 %
20.08.2016 04:50 16,7 C 16,7 C 17,0 C 86 % 1011,6 hPa 0,0 l/m 0,0 km/h (0 Bft) N 0 0 min 0,000 mm 0 W/m 14,3 C 16,7 C 0,0 km/h (0 Bft) 100 %
20.08.2016 05:00 16,4 C 16,4 C 16,7 C 87 % 1011,6 hPa 0,0 l/m 0,0 km/h (0 Bft) N 0 0 min 0,000 mm 0 W/m 14,2 C 16,4 C 0,0 km/h (0 Bft) 100 %
20.08.2016 05:10 16,1 C 16,1 C 16,4 C 88 % 1011,6 hPa 0,0 l/m 0,0 km/h (0 Bft) N 0 0 min 0,000 mm 0 W/m 14,1 C 16,1 C 0,0 km/h (0 Bft) 100 %
20.08.2016 05:20 15,8 C 15,8 C 16,1 C 88 % 1011,7 hPa 0,0 l/m 0,0 km/h (0 Bft) N 0 0 min 0,000 mm 0 W/m 13,8 C 15,8 C 0,0 km/h (0 Bft) 100 %
20.08.2016 05:30 15,7 C 15,7 C 15,8 C 89 % 1011,6 hPa 0,0 l/m 0,0 km/h (0 Bft) N 0 0 min 0,000 mm 0 W/m 13,9 C 15,7 C 0,0 km/h (0 Bft) 100 %
20.08.2016 05:40 15,7 C 15,7 C 15,7 C 89 % 1011,6 hPa 0,0 l/m 0,0 km/h (0 Bft) N 0 0 min 0,000 mm 0 W/m 13,9 C 15,7 C 0,0 km/h (0 Bft) 100 %
20.08.2016 05:50 15,7 C 15,7 C 15,7 C 89 % 1011,5 hPa 0,0 l/m 0,0 km/h (0 Bft) N 0 0 min 0,000 mm 0 W/m 13,9 C 15,7 C 0,0 km/h (0 Bft) 100 %
20.08.2016 06:00 15,6 C 15,6 C 15,7 C 89 % 1011,6 hPa 0,0 l/m 0,0 km/h (0 Bft) N 0 0 min 0,000 mm 0 W/m 13,8 C 15,6 C 0,0 km/h (0 Bft) 100 %
20.08.2016 06:10 15,4 C 15,4 C 15,6 C 89 % 1011,5 hPa 0,0 l/m 0,0 km/h (0 Bft) N 0 0 min 0,000 mm 0 W/m 13,6 C 15,4 C 0,0 km/h (0 Bft) 100 %
20.08.2016 06:20 15,3 C 15,3 C 15,4 C 89 % 1011,5 hPa 0,0 l/m 0,0 km/h (0 Bft) N 0 0 min 0,000 mm 0 W/m 13,5 C 15,3 C 0,0 km/h (0 Bft) 100 %
20.08.2016 06:30 15,1 C 15,1 C 15,3 C 89 % 1011,5 hPa 0,0 l/m 0,0 km/h (0 Bft) N 0 0 min 0,000 mm 0 W/m 13,3 C 15,1 C 0,0 km/h (0 Bft) 100 %
20.08.2016 06:40 15,1 C 15,1 C 15,1 C 89 % 1011,6 hPa 0,0 l/m 0,0 km/h (0 Bft) N 0 0 min 0,000 mm 14 W/m 13,3 C 15,1 C 0,0 km/h (0 Bft) 100 %
20.08.2016 06:50 15,1 C 15,1 C 15,1 C 90 % 1011,6 hPa 0,0 l/m 0,0 km/h (0 Bft) N 0 0 min 0,000 mm 18 W/m 13,5 C 15,1 C 0,0 km/h (0 Bft) 99 %
20.08.2016 07:00 15,2 C 15,1 C 15,2 C 90 % 1011,8 hPa 0,0 l/m 0,0 km/h (0 Bft) N 0 0 min 0,000 mm 30 W/m 13,6 C 15,2 C 0,0 km/h (0 Bft) 100 %
20.08.2016 07:10 15,3 C 15,2 C 15,3 C 90 % 1011,9 hPa 0,0 l/m 0,0 km/h (0 Bft) N 0 0 min 0,000 mm 40 W/m 13,7 C 15,3 C 0,0 km/h (0 Bft) 100 %
20.08.2016 07:20 15,4 C 15,3 C 15,4 C 90 % 1011,9 hPa 0,0 l/m 0,0 km/h (0 Bft) N 0 0 min 0,000 mm 53 W/m 13,8 C 15,4 C 0,0 km/h (0 Bft) 100 %
20.08.2016 07:30 15,5 C 15,4 C 15,6 C 90 % 1011,9 hPa 0,0 l/m 0,0 km/h (0 Bft) N 0 0 min 0,000 mm 53 W/m 13,9 C 15,5 C 0,0 km/h (0 Bft) 100 %
20.08.2016 07:40 15,6 C 15,4 C 15,6 C 90 % 1011,9 hPa 0,0 l/m 0,0 km/h (0 Bft) SO 135 0 min 0,000 mm 93 W/m 14,0 C 15,6 C 1,6 km/h (1 Bft) 100 %
20.08.2016 07:50 15,7 C 15,6 C 15,7 C 90 % 1011,9 hPa 0,0 l/m 0,0 km/h (0 Bft) N 0 0 min 0,000 mm 51 W/m 14,1 C 15,7 C 0,0 km/h (0 Bft) 100 %
20.08.2016 08:00 15,9 C 15,7 C 15,9 C 90 % 1011,8 hPa 0,0 l/m 0,0 km/h (0 Bft) N 0 0 min 0,025 mm 35 W/m 14,3 C 15,9 C 0,0 km/h (0 Bft) 100 %
20.08.2016 08:10 15,9 C 15,8 C 15,9 C 90 % 1011,9 hPa 0,0 l/m 0,0 km/h (0 Bft) N 0 0 min 0,000 mm 35 W/m 14,3 C 15,9 C 0,0 km/h (0 Bft) 100 %
20.08.2016 08:20 16,1 C 15,9 C 16,1 C 90 % 1011,8 hPa 0,0 l/m 0,0 km/h (0 Bft) N 0 0 min 0,000 mm 40 W/m 14,5 C 16,1 C 0,0 km/h (0 Bft) 100 %
20.08.2016 08:30 16,6 C 16,2 C 16,6 C 89 % 1011,5 hPa 0,0 l/m 0,0 km/h (0 Bft) SO 135 0 min 0,000 mm 93 W/m 14,8 C 16,6 C 1,6 km/h (1 Bft) 100 %
20.08.2016 08:40 17,4 C 16,6 C 17,4 C 89 % 1011,9 hPa 0,0 l/m 0,0 km/h (0 Bft) S-SW 202 10 min 0,000 mm 315 W/m 15,6 C 17,4 C 8,0 km/h (2 Bft) 100 %
20.08.2016 08:50 18,1 C 17,5 C 18,1 C 87 % 1011,9 hPa 0,0 l/m 1,6 km/h (1 Bft) S-SW 202 10 min 0,000 mm 378 W/m 15,9 C 18,1 C 9,7 km/h (2 Bft) 100 %
20.08.2016 09:00 19,1 C 18,1 C 19,1 C 84 % 1012,0 hPa 0,0 l/m 0,0 km/h (0 Bft) S 180 10 min 0,102 mm 424 W/m 16,3 C 19,1 C 4,8 km/h (1 Bft) 100 %
20.08.2016 09:10 19,9 C 19,1 C 19,9 C 80 % 1011,9 hPa 0,0 l/m 1,6 km/h (1 Bft) S 180 10 min 0,000 mm 438 W/m 16,3 C 19,9 C 11,3 km/h (2 Bft) 100 %
20.08.2016 09:20 20,3 C 19,9 C 20,3 C 79 % 1012,1 hPa 0,0 l/m 3,2 km/h (1 Bft) S 180 10 min 0,000 mm 390 W/m 16,5 C 20,3 C 14,5 km/h (3 Bft) 100 %
20.08.2016 09:30 20,9 C 20,3 C 20,9 C 77 % 1012,0 hPa 0,0 l/m 3,2 km/h (1 Bft) S 180 10 min 0,000 mm 439 W/m 16,7 C 20,9 C 14,5 km/h (3 Bft) 100 %
20.08.2016 09:40 21,4 C 20,9 C 21,4 C 75 % 1012,0 hPa 0,0 l/m 3,2 km/h (1 Bft) S 180 10 min 0,000 mm 475 W/m 16,8 C 21,4 C 9,7 km/h (2 Bft) 100 %
20.08.2016 09:50 21,3 C 21,3 C 21,5 C 74 % 1012,2 hPa 0,0 l/m 1,6 km/h (1 Bft) S-SW 202 10 min 0,000 mm 462 W/m 16,5 C 21,3 C 9,7 km/h (2 Bft) 100 %
20.08.2016 10:00 21,2 C 21,1 C 21,3 C 77 % 1012,1 hPa 0,0 l/m 0,0 km/h (0 Bft) S-SO 157 10 min 0,229 mm 454 W/m 17,0 C 21,2 C 1,6 km/h (1 Bft) 100 %
20.08.2016 10:10 21,2 C 21,2 C 21,3 C 74 % 1012,1 hPa 0,0 l/m 0,0 km/h (0 Bft) S 180 10 min 0,000 mm 285 W/m 16,4 C 21,2 C 1,6 km/h (1 Bft) 100 %
20.08.2016 10:20 21,1 C 21,1 C 21,2 C 75 % 1012,0 hPa 0,0 l/m 0,0 km/h (0 Bft) N 0 10 min 0,000 mm 308 W/m 16,5 C 21,1 C 0,0 km/h (0 Bft) 100 %
20.08.2016 10:30 21,3 C 21,1 C 21,3 C 76 % 1012,1 hPa 0,0 l/m 0,0 km/h (0 Bft) S 180 10 min 0,000 mm 443 W/m 16,9 C 21,3 C 1,6 km/h (1 Bft) 100 %
20.08.2016 10:40 21,6 C 21,3 C 21,6 C 72 % 1012,1 hPa 0,0 l/m 0,0 km/h (0 Bft) S 180 10 min 0,000 mm 381 W/m 16,3 C 21,6 C 1,6 km/h (1 Bft) 100 %
20.08.2016 10:50 22,1 C 21,6 C 22,1 C 70 % 1012,3 hPa 0,0 l/m 0,0 km/h (0 Bft) S-SW 202 10 min 0,000 mm 508 W/m 16,4 C 22,1 C 1,6 km/h (1 Bft) 100 %
20.08.2016 11:00 22,6 C 22,1 C 22,6 C 69 % 1012,3 hPa 0,0 l/m 0,0 km/h (0 Bft) W-SW 247 10 min 0,203 mm 594 W/m 16,6 C 22,6 C 1,6 km/h (1 Bft) 100 %
20.08.2016 11:10 23,2 C 22,6 C 23,2 C 70 % 1012,3 hPa 0,0 l/m 0,0 km/h (0 Bft) SW 225 10 min 0,000 mm 624 W/m 17,4 C 23,2 C 1,6 km/h (1 Bft) 100 %
20.08.2016 11:20 23,3 C 23,2 C 23,4 C 68 % 1012,3 hPa 0,0 l/m 1,6 km/h (1 Bft) S-SW 202 10 min 0,000 mm 418 W/m 17,1 C 23,3 C 8,0 km/h (2 Bft) 100 %
20.08.2016 11:30 23,4 C 23,3 C 23,4 C 68 % 1012,3 hPa 0,0 l/m 4,8 km/h (1 Bft) SW 225 10 min 0,000 mm 436 W/m 17,1 C 23,4 C 11,3 km/h (2 Bft) 100 %
20.08.2016 11:40 23,6 C 23,4 C 23,6 C 68 % 1012,3 hPa 0,0 l/m 0,0 km/h (0 Bft) W-NW 292 10 min 0,000 mm 403 W/m 17,3 C 23,6 C 4,8 km/h (1 Bft) 100 %
20.08.2016 11:50 23,7 C 23,6 C 23,7 C 67 % 1012,5 hPa 0,0 l/m 1,6 km/h (1 Bft) W-SW 247 10 min 0,000 mm 388 W/m 17,2 C 23,7 C 9,7 km/h (2 Bft) 100 %
20.08.2016 12:00 23,5 C 23,5 C 23,7 C 67 % 1012,5 hPa 0,0 l/m 1,6 km/h (1 Bft) W 270 10 min 0,229 mm 299 W/m 17,0 C 23,5 C 12,9 km/h (3 Bft) 100 %
20.08.2016 12:10 23,2 C 23,2 C 23,5 C 69 % 1012,4 hPa 0,0 l/m 3,2 km/h (1 Bft) S-SW 202 10 min 0,000 mm 316 W/m 17,2 C 23,2 C 11,3 km/h (2 Bft) 100 %
20.08.2016 12:20 23,1 C 23,1 C 23,1 C 70 % 1012,5 hPa 0,0 l/m 3,2 km/h (1 Bft) SW 225 10 min 0,000 mm 332 W/m 17,3 C 23,1 C 9,7 km/h (2 Bft) 100 %
20.08.2016 12:30 22,9 C 22,9 C 23,1 C 65 % 1012,7 hPa 0,0 l/m 6,4 km/h (2 Bft) W 270 10 min 0,000 mm 241 W/m 16,0 C 22,9 C 14,5 km/h (3 Bft) 100 %
20.08.2016 12:40 22,6 C 22,6 C 22,8 C 67 % 1012,8 hPa 0,0 l/m 6,4 km/h (2 Bft) W 270 10 min 0,000 mm 239 W/m 16,2 C 22,6 C 17,7 km/h (3 Bft) 100 %
20.08.2016 12:50 22,3 C 22,3 C 22,6 C 68 % 1012,8 hPa 0,0 l/m 3,2 km/h (1 Bft) W 270 10 min 0,000 mm 167 W/m 16,1 C 22,3 C 9,7 km/h (2 Bft) 100 %
20.08.2016 13:00 22,1 C 22,1 C 22,3 C 69 % 1012,7 hPa 0,0 l/m 1,6 km/h (1 Bft) W 270 10 min 0,152 mm 158 W/m 16,1 C 22,1 C 8,0 km/h (2 Bft) 100 %
20.08.2016 13:10 21,9 C 21,9 C 22,1 C 72 % 1012,8 hPa 0,0 l/m 3,2 km/h (1 Bft) W 270 10 min 0,000 mm 167 W/m 16,6 C 21,9 C 9,7 km/h (2 Bft) 100 %
20.08.2016 13:20 21,6 C 21,6 C 21,8 C 75 % 1012,9 hPa 0,0 l/m 4,8 km/h (1 Bft) SW 225 10 min 0,000 mm 193 W/m 17,0 C 21,6 C 11,3 km/h (2 Bft) 100 %
20.08.2016 13:30 21,4 C 21,4 C 21,6 C 75 % 1013,1 hPa 0,0 l/m 4,8 km/h (1 Bft) W 270 10 min 0,000 mm 186 W/m 16,8 C 21,4 C 16,1 km/h (3 Bft) 100 %
20.08.2016 13:40 21,3 C 21,3 C 21,4 C 73 % 1013,2 hPa 0,0 l/m 3,2 km/h (1 Bft) W 270 0 min 0,000 mm 132 W/m 16,3 C 21,3 C 9,7 km/h (2 Bft) 100 %
20.08.2016 13:50 21,1 C 21,1 C 21,3 C 75 % 1013,1 hPa 0,0 l/m 6,4 km/h (2 Bft) W 270 0 min 0,000 mm 132 W/m 16,5 C 21,1 C 14,5 km/h (3 Bft) 100 %
20.08.2016 14:00 20,9 C 20,9 C 21,1 C 75 % 1013,1 hPa 0,0 l/m 6,4 km/h (2 Bft) W 270 10 min 0,102 mm 153 W/m 16,3 C 20,9 C 17,7 km/h (3 Bft) 100 %
20.08.2016 14:10 20,8 C 20,8 C 21,1 C 75 % 1013,2 hPa 0,0 l/m 0,4 km/h (0 Bft) W-NW 290 0 min 0,000 mm 86 W/m 16,2 C 20,8 C 4,8 km/h (1 Bft) 100 %
20.08.2016 14:20 20,6 C 20,6 C 20,8 C 77 % 1013,4 hPa 0,0 l/m 7,1 km/h (2 Bft) W-SW 254 0 min 0,000 mm 91 W/m 16,4 C 20,3 C 17,7 km/h (3 Bft) 100 %
20.08.2016 14:30 20,3 C 20,3 C 20,6 C 76 % 1013,5 hPa 0,0 l/m 6,5 km/h (2 Bft) W-NW 302 0 min 0,000 mm 88 W/m 15,9 C 20,3 C 17,7 km/h (3 Bft) 100 %
20.08.2016 14:40 20,1 C 20,1 C 20,3 C 77 % 1013,4 hPa 0,0 l/m 3,0 km/h (1 Bft) W 274 0 min 0,000 mm 72 W/m 15,9 C 20,1 C 14,5 km/h (3 Bft) 100 %
20.08.2016 14:50 20,0 C 20,0 C 20,1 C 78 % 1013,4 hPa 0,0 l/m 3,6 km/h (1 Bft) W-NW 291 0 min 0,000 mm 54 W/m 16,0 C 20,0 C 14,5 km/h (3 Bft) 100 %
20.08.2016 15:00 19,8 C 19,8 C 20,0 C 80 % 1013,5 hPa 0,0 l/m 4,9 km/h (1 Bft) W-NW 303 0 min 0,052 mm 69 W/m 16,2 C 19,8 C 17,7 km/h (3 Bft) 100 %
20.08.2016 15:10 19,7 C 19,7 C 19,8 C 81 % 1013,5 hPa 0,0 l/m 6,9 km/h (2 Bft) W-NW 285 0 min 0,000 mm 132 W/m 16,3 C 19,5 C 16,1 km/h (3 Bft) 100 %
20.08.2016 15:20 19,7 C 19,7 C 19,7 C 80 % 1013,5 hPa 0,0 l/m 6,0 km/h (2 Bft) W-NW 297 0 min 0,000 mm 134 W/m 16,1 C 19,7 C 19,3 km/h (3 Bft) 100 %
20.08.2016 15:30 19,8 C 19,7 C 19,8 C 81 % 1013,5 hPa 0,0 l/m 2,0 km/h (1 Bft) NW 316 10 min 0,000 mm 183 W/m 16,4 C 19,8 C 9,7 km/h (2 Bft) 100 %
20.08.2016 15:40 19,9 C 19,8 C 19,9 C 81 % 1013,5 hPa 0,0 l/m 3,5 km/h (1 Bft) W-NW 300 0 min 0,000 mm 134 W/m 16,5 C 19,9 C 17,7 km/h (3 Bft) 100 %
20.08.2016 15:50 19,8 C 19,8 C 19,9 C 81 % 1013,4 hPa 0,0 l/m 4,6 km/h (1 Bft) NW 317 0 min 0,000 mm 107 W/m 16,4 C 19,8 C 11,3 km/h (2 Bft) 100 %
20.08.2016 16:00 19,7 C 19,7 C 19,8 C 81 % 1013,3 hPa 0,0 l/m 5,5 km/h (1 Bft) W-NW 291 0 min 0,102 mm 137 W/m 16,3 C 19,7 C 16,1 km/h (3 Bft) 99 %
20.08.2016 16:10 19,7 C 19,7 C 19,7 C 81 % 1013,5 hPa 0,0 l/m 3,3 km/h (1 Bft) W-NW 292 0 min 0,000 mm 113 W/m 16,3 C 19,7 C 11,3 km/h (2 Bft) 100 %
20.08.2016 16:20 19,8 C 19,7 C 19,8 C 82 % 1013,4 hPa 0,0 l/m 3,0 km/h (1 Bft) NW 321 0 min 0,000 mm 135 W/m 16,6 C 19,8 C 11,3 km/h (2 Bft) 100 %
20.08.2016 16:30 19,8 C 19,8 C 19,8 C 81 % 1013,5 hPa 0,0 l/m 3,6 km/h (1 Bft) W-NW 289 0 min 0,000 mm 134 W/m 16,4 C 19,8 C 11,3 km/h (2 Bft) 100 %
20.08.2016 16:40 19,7 C 19,7 C 19,8 C 80 % 1013,6 hPa 0,0 l/m 1,4 km/h (1 Bft) W-NW 288 0 min 0,000 mm 54 W/m 16,1 C 19,7 C 8,0 km/h (2 Bft) 100 %
20.08.2016 16:50 19,5 C 19,5 C 19,7 C 81 % 1013,5 hPa 0,0 l/m 0,8 km/h (0 Bft) NW 313 0 min 0,000 mm 88 W/m 16,1 C 19,5 C 11,3 km/h (2 Bft) 100 %
20.08.2016 17:00 19,4 C 19,4 C 19,5 C 81 % 1013,5 hPa 0,0 l/m 7,5 km/h (2 Bft) W-NW 294 0 min 0,076 mm 21 W/m 16,1 C 18,9 C 17,7 km/h (3 Bft) 100 %
20.08.2016 17:10 19,1 C 19,1 C 19,4 C 82 % 1013,6 hPa 0,0 l/m 10,2 km/h (2 Bft) NW 314 0 min 0,000 mm 12 W/m 16,0 C 17,6 C 20,9 km/h (4 Bft) 100 %
20.08.2016 17:20 18,6 C 18,6 C 19,1 C 82 % 1013,7 hPa 0,0 l/m 8,7 km/h (2 Bft) W 268 0 min 0,000 mm 9 W/m 15,5 C 17,6 C 24,1 km/h (4 Bft) 100 %
20.08.2016 17:30 18,2 C 18,2 C 18,6 C 83 % 1013,9 hPa 0,0 l/m 5,5 km/h (1 Bft) W-NW 288 0 min 0,000 mm 9 W/m 15,3 C 18,2 C 16,1 km/h (3 Bft) 100 %
20.08.2016 17:40 17,9 C 17,9 C 18,2 C 85 % 1014,0 hPa 0,0 l/m 2,2 km/h (1 Bft) W 273 0 min 0,000 mm 19 W/m 15,3 C 17,9 C 19,3 km/h (3 Bft) 100 %
20.08.2016 17:50 17,6 C 17,6 C 17,9 C 86 % 1014,3 hPa 0,2 l/m 7,1 km/h (2 Bft) W-NW 296 0 min 0,000 mm 18 W/m 15,2 C 17,3 C 20,9 km/h (4 Bft) 100 %
20.08.2016 18:00 17,1 C 17,1 C 17,6 C 87 % 1014,4 hPa 0,2 l/m 9,7 km/h (2 Bft) NW 318 0 min 0,025 mm 21 W/m 14,9 C 15,6 C 22,5 km/h (4 Bft) 100 %
20.08.2016 18:10 16,7 C 16,7 C 17,1 C 88 % 1014,5 hPa 0,4 l/m 3,2 km/h (1 Bft) W-NW 295 0 min 0,000 mm 18 W/m 14,7 C 16,7 C 9,7 km/h (2 Bft) 99 %
20.08.2016 18:20 16,5 C 16,5 C 16,7 C 88 % 1014,6 hPa 0,4 l/m 0,2 km/h (0 Bft) W-NW 290 0 min 0,000 mm 25 W/m 14,5 C 16,5 C 6,4 km/h (2 Bft) 100 %
20.08.2016 18:30 16,3 C 16,3 C 16,5 C 89 % 1014,5 hPa 0,4 l/m 0,0 km/h (0 Bft) W-NW 290 0 min 0,000 mm 30 W/m 14,5 C 16,3 C 0,0 km/h (0 Bft) 100 %
20.08.2016 18:40 16,3 C 16,3 C 16,3 C 89 % 1014,7 hPa 0,2 l/m 0,0 km/h (0 Bft) S-SW 213 0 min 0,000 mm 25 W/m 14,5 C 16,3 C 1,6 km/h (1 Bft) 100 %
20.08.2016 18:50 16,2 C 16,2 C 16,3 C 89 % 1014,6 hPa 0,4 l/m 0,0 km/h (0 Bft) W 260 0 min 0,000 mm 26 W/m 14,4 C 16,2 C 0,0 km/h (0 Bft) 100 %
20.08.2016 19:00 16,1 C 16,1 C 16,2 C 90 % 1014,6 hPa 0,2 l/m 0,9 km/h (0 Bft) W-SW 254 0 min 0,026 mm 18 W/m 14,5 C 16,1 C 6,4 km/h (2 Bft) 100 %
20.08.2016 19:10 16,1 C 16,1 C 16,2 C 90 % 1014,8 hPa 0,2 l/m 8,8 km/h (2 Bft) NW 311 0 min 0,000 mm 30 W/m 14,5 C 14,9 C 24,1 km/h (4 Bft) 100 %
20.08.2016 19:20 15,6 C 15,6 C 16,1 C 89 % 1014,7 hPa 0,2 l/m 6,8 km/h (2 Bft) NW 312 0 min 0,000 mm 44 W/m 13,8 C 15,4 C 17,7 km/h (3 Bft) 100 %
20.08.2016 19:30 15,5 C 15,5 C 15,6 C 90 % 1014,8 hPa 0,0 l/m 2,8 km/h (1 Bft) W-NW 298 0 min 0,000 mm 25 W/m 13,9 C 15,5 C 9,7 km/h (2 Bft) 100 %
20.08.2016 19:40 15,3 C 15,3 C 15,5 C 90 % 1014,9 hPa 0,0 l/m 2,9 km/h (1 Bft) W-NW 302 0 min 0,000 mm 14 W/m 13,7 C 15,3 C 11,3 km/h (2 Bft) 100 %
20.08.2016 19:50 15,2 C 15,2 C 15,3 C 90 % 1015,0 hPa 0,0 l/m 0,0 km/h (0 Bft) W-NW 302 0 min 0,000 mm 11 W/m 13,6 C 15,2 C 1,6 km/h (1 Bft) 100 %
20.08.2016 20:00 15,2 C 15,2 C 15,2 C 90 % 1015,3 hPa 0,0 l/m 0,0 km/h (0 Bft) W 267 0 min 0,025 mm 12 W/m 13,6 C 15,2 C 1,6 km/h (1 Bft) 100 %
20.08.2016 20:10 15,1 C 15,1 C 15,2 C 90 % 1015,0 hPa 0,0 l/m 3,7 km/h (1 Bft) S-SW 213 0 min 0,000 mm 9 W/m 13,5 C 15,1 C 8,0 km/h (2 Bft) 100 %
20.08.2016 20:20 14,9 C 14,9 C 15,1 C 90 % 1015,4 hPa 0,2 l/m 3,6 km/h (1 Bft) SW 216 0 min 0,000 mm 9 W/m 13,3 C 14,9 C 9,7 km/h (2 Bft) 100 %
20.08.2016 20:30 14,8 C 14,8 C 14,9 C 90 % 1015,4 hPa 0,0 l/m 1,0 km/h (0 Bft) S-SW 213 0 min 0,000 mm 0 W/m 13,2 C 14,8 C 6,4 km/h (2 Bft) 100 %
20.08.2016 20:40 14,7 C 14,7 C 14,8 C 90 % 1015,6 hPa 0,0 l/m 0,0 km/h (0 Bft) S-SW 209 0 min 0,000 mm 0 W/m 13,1 C 14,7 C 1,6 km/h (1 Bft) 100 %
20.08.2016 20:50 14,7 C 14,7 C 14,7 C 90 % 1015,7 hPa 0,0 l/m 3,2 km/h (1 Bft) S-SW 197 0 min 0,000 mm 0 W/m 13,1 C 14,7 C 11,3 km/h (2 Bft) 100 %
20.08.2016 21:00 14,7 C 14,7 C 14,7 C 90 % 1015,8 hPa 0,2 l/m 3,9 km/h (1 Bft) S-SW 193 0 min 0,000 mm 0 W/m 13,1 C 14,7 C 11,3 km/h (2 Bft) 100 %
20.08.2016 21:10 14,7 C 14,7 C 14,7 C 90 % 1015,8 hPa 0,0 l/m 3,2 km/h (1 Bft) S-SW 202 0 min 0,000 mm 0 W/m 13,1 C 14,7 C 12,9 km/h (3 Bft) 100 %
20.08.2016 21:20 14,6 C 14,6 C 14,7 C 90 % 1015,8 hPa 0,2 l/m 0,0 km/h (0 Bft) S-SW 202 0 min 0,000 mm 0 W/m 13,0 C 14,6 C 1,6 km/h (1 Bft) 100 %
20.08.2016 21:30 14,6 C 14,5 C 14,6 C 90 % 1015,8 hPa 0,0 l/m 0,0 km/h (0 Bft) N 0 0 min 0,000 mm 0 W/m 13,0 C 14,6 C 0,0 km/h (0 Bft) 100 %
20.08.2016 21:40 14,4 C 14,4 C 14,6 C 90 % 1015,8 hPa 0,0 l/m 1,6 km/h (1 Bft) S-SW 202 0 min 0,000 mm 0 W/m 12,8 C 14,4 C 6,4 km/h (2 Bft) 100 %
20.08.2016 21:50 14,3 C 14,3 C 14,4 C 90 % 1015,9 hPa 0,0 l/m 0,0 km/h (0 Bft) SW 225 0 min 0,000 mm 0 W/m 12,7 C 14,3 C 1,6 km/h (1 Bft) 100 %
20.08.2016 22:00 14,2 C 14,2 C 14,3 C 91 % 1015,8 hPa 0,0 l/m 0,0 km/h (0 Bft) N 0 0 min 0,000 mm 0 W/m 12,8 C 14,2 C 0,0 km/h (0 Bft) 100 %
20.08.2016 22:10 13,9 C 13,9 C 14,2 C 90 % 1016,1 hPa 0,0 l/m 0,0 km/h (0 Bft) SW 225 0 min 0,000 mm 0 W/m 12,3 C 13,9 C 3,2 km/h (1 Bft) 99 %
20.08.2016 22:20 13,7 C 13,7 C 13,9 C 90 % 1016,2 hPa 0,0 l/m 0,0 km/h (0 Bft) S-SW 202 0 min 0,000 mm 0 W/m 12,1 C 13,7 C 1,6 km/h (1 Bft) 100 %
20.08.2016 22:30 13,4 C 13,4 C 13,7 C 91 % 1016,2 hPa 0,0 l/m 0,0 km/h (0 Bft) S-SW 202 0 min 0,000 mm 0 W/m 12,0 C 13,4 C 6,4 km/h (2 Bft) 100 %
20.08.2016 22:40 13,2 C 13,2 C 13,4 C 90 % 1016,3 hPa 0,0 l/m 0,0 km/h (0 Bft) S-SW 202 0 min 0,000 mm 0 W/m 11,6 C 13,2 C 1,6 km/h (1 Bft) 100 %
20.08.2016 22:50 13,2 C 13,2 C 13,3 C 91 % 1016,5 hPa 0,0 l/m 0,0 km/h (0 Bft) S-SW 202 0 min 0,000 mm 0 W/m 11,8 C 13,2 C 1,6 km/h (1 Bft) 100 %
20.08.2016 23:00 13,2 C 13,2 C 13,2 C 91 % 1016,6 hPa 0,0 l/m 0,0 km/h (0 Bft) S 180 0 min 0,000 mm 0 W/m 11,8 C 13,2 C 8,0 km/h (2 Bft) 99 %
20.08.2016 23:10 13,2 C 13,2 C 13,2 C 91 % 1016,7 hPa 0,0 l/m 0,0 km/h (0 Bft) S 180 0 min 0,000 mm 0 W/m 11,8 C 13,2 C 1,6 km/h (1 Bft) 100 %
20.08.2016 23:20 13,1 C 13,1 C 13,2 C 91 % 1016,9 hPa 0,0 l/m 0,0 km/h (0 Bft) S-SW 202 0 min 0,000 mm 0 W/m 11,7 C 13,1 C 6,4 km/h (2 Bft) 100 %
20.08.2016 23:30 13,0 C 13,0 C 13,1 C 91 % 1016,8 hPa 0,0 l/m 0,0 km/h (0 Bft) S-SW 202 0 min 0,000 mm 0 W/m 11,6 C 13,0 C 4,8 km/h (1 Bft) 100 %
20.08.2016 23:40 12,9 C 12,9 C 13,0 C 91 % 1016,9 hPa 0,0 l/m 1,6 km/h (1 Bft) S-SW 202 0 min 0,000 mm 0 W/m 11,5 C 12,9 C 6,4 km/h (2 Bft) 100 %
20.08.2016 23:50 12,9 C 12,9 C 12,9 C 91 % 1016,8 hPa 0,0 l/m 0,0 km/h (0 Bft) S-SW 202 0 min 0,000 mm 0 W/m 11,5 C 12,9 C 1,6 km/h (1 Bft) 100 %
_ Min-Zeit 23:40 23:40 23:50 12:30 00:00 - 00:00 - - - - - 23:40 23:40 00:10 02:00
Minimum _ 12,9 C 12,9 C 12,9 C 65 % 1011,1 hPa - 0,0 km/h (0 Bft) - - - - - 11,5 C 12,9 C 0,0 km/h (0 Bft) 90 %
_ Max-Zeit 11:50 11:50 11:50 22:00 23:20 18:10 17:10 - - 08:40 10:00 11:10 11:10 11:50 17:20 00:30
Maximum _ 23,7 C 23,6 C 23,7 C 91 % 1016,9 hPa 0,4 l/m 10,2 km/h
NW (2 Bft)
- - 10 min 0,229 mm 624 W/m 17,4 C 23,7 C 24,1 km/h
W-NW (4 Bft)
100 %
Durchschnitt _ 17,9 C 17,8 C 18,0 C 83 % 1013,1 hPa #3,4 l/m 1,8 km/h (1 Bft) W-NW - #5:20 h #1,473 mm 169 W/m 14,9 C 17,9 C 6,5 km/h (2 Bft) 100 %
PRIVATE WETTERSTATION BILLIGHEIM-ALLFELD - www.neckar-odenwald-wetter.de - Holger Sonntag